Data supplied by UK-AIR on 14/3/2023
All Data GMT hour ending 
Status: R =Ratified P=Provisional,P*=As supplied
,,Bury Whitefield Roadside,,,,,,,,,,,,,,,,,,,,,,,
Date,time,"PM<sub>10</sub> particulate matter (Hourly measured)",status,unit,"Nitric oxide",status,unit,"Nitrogen dioxide",status,unit,"Nitrogen oxides as nitrogen dioxide",status,unit
 
01-01-2022,01:00,28.986,R,ugm-3 (Ref.eq),0.18497,R,ugm-3,9.21219,R,ugm-3,9.49580,R,ugm-3
01-01-2022,02:00,13.527,R,ugm-3 (Ref.eq),0.46241,R,ugm-3,6.39525,R,ugm-3,7.10426,R,ugm-3
01-01-2022,03:00,11.594,R,ugm-3 (Ref.eq),0.34681,R,ugm-3,5.64051,R,ugm-3,6.17227,R,ugm-3
01-01-2022,04:00,9.662,R,ugm-3 (Ref.eq),0.52021,R,ugm-3,4.63606,R,ugm-3,5.43371,R,ugm-3
01-01-2022,05:00,9.662,R,ugm-3 (Ref.eq),0.62425,R,ugm-3,4.16001,R,ugm-3,5.11718,R,ugm-3
01-01-2022,06:00,14.493,R,ugm-3 (Ref.eq),0.76298,R,ugm-3,3.36700,R,ugm-3,4.53688,R,ugm-3
01-01-2022,07:00,13.527,R,ugm-3 (Ref.eq),0.52021,R,ugm-3,3.58097,R,ugm-3,4.37862,R,ugm-3
01-01-2022,08:00,18.358,R,ugm-3 (Ref.eq),1.17915,R,ugm-3,5.15559,R,ugm-3,6.96359,R,ugm-3
01-01-2022,09:00,15.459,R,ugm-3 (Ref.eq),0.93638,R,ugm-3,3.62866,R,ugm-3,5.06443,R,ugm-3
01-01-2022,10:00,17.392,R,ugm-3 (Ref.eq),1.56064,R,ugm-3,4.93993,R,ugm-3,7.33287,R,ugm-3
01-01-2022,11:00,19.324,R,ugm-3 (Ref.eq),2.94787,R,ugm-3,6.66394,R,ugm-3,11.18394,R,ugm-3
01-01-2022,12:00,21.256,R,ugm-3 (Ref.eq),2.87851,R,ugm-3,10.14658,R,ugm-3,14.56023,R,ugm-3
01-01-2022,13:00,23.189,R,ugm-3 (Ref.eq),4.75127,R,ugm-3,12.55050,R,ugm-3,19.83567,R,ugm-3
01-01-2022,14:00,20.290,R,ugm-3 (Ref.eq),4.50850,R,ugm-3,11.55112,R,ugm-3,18.46406,R,ugm-3
01-01-2022,15:00,26.087,R,ugm-3 (Ref.eq),5.37552,R,ugm-3,11.59332,R,ugm-3,19.83567,R,ugm-3
01-01-2022,16:00,27.054,R,ugm-3 (Ref.eq),5.65297,R,ugm-3,17.28742,R,ugm-3,25.95519,R,ugm-3
01-01-2022,17:00,25.121,R,ugm-3 (Ref.eq),2.67042,R,ugm-3,15.53007,R,ugm-3,19.62465,R,ugm-3
01-01-2022,18:00,23.189,R,ugm-3 (Ref.eq),2.21957,R,ugm-3,12.68681,R,ugm-3,16.09011,R,ugm-3
01-01-2022,19:00,23.189,R,ugm-3 (Ref.eq),2.77446,R,ugm-3,12.09976,R,ugm-3,16.35388,R,ugm-3
01-01-2022,20:00,24.155,R,ugm-3 (Ref.eq),2.98255,R,ugm-3,10.88388,R,ugm-3,15.45705,R,ugm-3
01-01-2022,21:00,22.223,R,ugm-3 (Ref.eq),2.80914,R,ugm-3,11.57180,R,ugm-3,15.87909,R,ugm-3
01-01-2022,22:00,17.392,R,ugm-3 (Ref.eq),2.15021,R,ugm-3,11.94909,R,ugm-3,15.24604,R,ugm-3
01-01-2022,23:00,14.493,R,ugm-3 (Ref.eq),1.80340,R,ugm-3,8.62979,R,ugm-3,11.39496,R,ugm-3
01-01-2022,24:00,17.392,R,ugm-3 (Ref.eq),0.83234,R,ugm-3,4.73777,R,ugm-3,6.01401,R,ugm-3
02-01-2022,01:00,16.425,R,ugm-3 (Ref.eq),0.83257,R,ugm-3,2.52390,R,ugm-3,3.80050,R,ugm-3
02-01-2022,02:00,15.459,R,ugm-3 (Ref.eq),0.65912,R,ugm-3,1.73416,R,ugm-3,2.74480,R,ugm-3
02-01-2022,03:00,16.425,R,ugm-3 (Ref.eq),0.65912,R,ugm-3,1.47024,R,ugm-3,2.48088,R,ugm-3
02-01-2022,04:00,17.392,R,ugm-3 (Ref.eq),0.69381,R,ugm-3,3.52844,R,ugm-3,4.59227,R,ugm-3
02-01-2022,05:00,15.459,R,ugm-3 (Ref.eq),1.04072,R,ugm-3,5.63575,R,ugm-3,7.23150,R,ugm-3
02-01-2022,06:00,12.561,R,ugm-3 (Ref.eq),1.14479,R,ugm-3,6.10959,R,ugm-3,7.86492,R,ugm-3
02-01-2022,07:00,9.662,R,ugm-3 (Ref.eq),3.53844,R,ugm-3,13.94644,R,ugm-3,19.37197,R,ugm-3
02-01-2022,08:00,7.730,R,ugm-3 (Ref.eq),2.01206,R,ugm-3,14.96725,R,ugm-3,18.05236,R,ugm-3
02-01-2022,09:00,9.662,R,ugm-3 (Ref.eq),1.42232,R,ugm-3,14.81581,R,ugm-3,16.99666,R,ugm-3
02-01-2022,10:00,7.730,R,ugm-3 (Ref.eq),2.98339,R,ugm-3,14.95586,R,ugm-3,19.53033,R,ugm-3
02-01-2022,11:00,12.561,R,ugm-3 (Ref.eq),13.11305,R,ugm-3,25.86905,R,ugm-3,45.97544,R,ugm-3
02-01-2022,12:00,8.696,R,ugm-3 (Ref.eq),6.52183,R,ugm-3,24.09889,R,ugm-3,34.09889,R,ugm-3
02-01-2022,13:00,7.730,R,ugm-3 (Ref.eq),7.97884,R,ugm-3,22.02320,R,ugm-3,34.25725,R,ugm-3
02-01-2022,14:00,9.662,R,ugm-3 (Ref.eq),9.60930,R,ugm-3,20.15661,R,ugm-3,34.89066,R,ugm-3
02-01-2022,15:00,8.696,R,ugm-3 (Ref.eq),15.09041,R,ugm-3,32.12723,R,ugm-3,55.26554,R,ugm-3
02-01-2022,16:00,8.696,R,ugm-3 (Ref.eq),9.60930,R,ugm-3,36.88935,R,ugm-3,51.62340,R,ugm-3
02-01-2022,17:00,9.662,R,ugm-3 (Ref.eq),9.29708,R,ugm-3,34.57049,R,ugm-3,48.82581,R,ugm-3
02-01-2022,18:00,10.628,R,ugm-3 (Ref.eq),4.57916,R,ugm-3,29.45292,R,ugm-3,36.47420,R,ugm-3
02-01-2022,19:00,11.594,R,ugm-3 (Ref.eq),6.52183,R,ugm-3,32.91393,R,ugm-3,42.91393,R,ugm-3
02-01-2022,20:00,14.493,R,ugm-3 (Ref.eq),7.11157,R,ugm-3,26.83677,R,ugm-3,37.74103,R,ugm-3
02-01-2022,21:00,20.290,R,ugm-3 (Ref.eq),4.64854,R,ugm-3,17.83948,R,ugm-3,24.96715,R,ugm-3
02-01-2022,22:00,18.358,R,ugm-3 (Ref.eq),6.59122,R,ugm-3,19.76973,R,ugm-3,29.87612,R,ugm-3
02-01-2022,23:00,15.459,R,ugm-3 (Ref.eq),4.44040,R,ugm-3,14.25257,R,ugm-3,21.06108,R,ugm-3
02-01-2022,24:00,20.290,R,ugm-3 (Ref.eq),5.06483,R,ugm-3,15.56486,R,ugm-3,23.33082,R,ugm-3
03-01-2022,01:00,16.425,R,ugm-3 (Ref.eq),2.35963,R,ugm-3,7.78997,R,ugm-3,11.40802,R,ugm-3
03-01-2022,02:00,15.459,R,ugm-3 (Ref.eq),2.01263,R,ugm-3,3.88558,R,ugm-3,6.97157,R,ugm-3
03-01-2022,03:00,15.459,R,ugm-3 (Ref.eq),1.04101,R,ugm-3,1.94240,R,ugm-3,3.53860,R,ugm-3
03-01-2022,04:00,21.256,R,ugm-3 (Ref.eq),1.28392,R,ugm-3,3.20722,R,ugm-3,5.17586,R,ugm-3
03-01-2022,05:00,18.358,R,ugm-3 (Ref.eq),1.00631,R,ugm-3,3.05190,R,ugm-3,4.59489,R,ugm-3
03-01-2022,06:00,17.392,R,ugm-3 (Ref.eq),2.42903,R,ugm-3,5.41252,R,ugm-3,9.13697,R,ugm-3
03-01-2022,07:00,22.223,R,ugm-3 (Ref.eq),4.05995,R,ugm-3,13.10508,R,ugm-3,19.33025,R,ugm-3
03-01-2022,08:00,18.358,R,ugm-3 (Ref.eq),5.51737,R,ugm-3,17.52508,R,ugm-3,25.98492,R,ugm-3
03-01-2022,09:00,16.425,R,ugm-3 (Ref.eq),4.92746,R,ugm-3,16.15855,R,ugm-3,23.71388,R,ugm-3
03-01-2022,10:00,19.324,R,ugm-3 (Ref.eq),6.03787,R,ugm-3,17.67765,R,ugm-3,26.93559,R,ugm-3
03-01-2022,11:00,22.223,R,ugm-3 (Ref.eq),10.68773,R,ugm-3,23.06509,R,ugm-3,39.45272,R,ugm-3
03-01-2022,12:00,21.256,R,ugm-3 (Ref.eq),11.00004,R,ugm-3,22.48060,R,ugm-3,39.34709,R,ugm-3
03-01-2022,13:00,22.223,R,ugm-3 (Ref.eq),8.53631,R,ugm-3,18.17759,R,ugm-3,31.26641,R,ugm-3
03-01-2022,14:00,15.459,R,ugm-3 (Ref.eq),5.06626,R,ugm-3,9.87201,R,ugm-3,17.64017,R,ugm-3
03-01-2022,15:00,18.358,R,ugm-3 (Ref.eq),4.71926,R,ugm-3,9.55904,R,ugm-3,16.79513,R,ugm-3
03-01-2022,16:00,14.493,R,ugm-3 (Ref.eq),6.55838,R,ugm-3,16.40421,R,ugm-3,26.46026,R,ugm-3
03-01-2022,17:00,23.189,R,ugm-3 (Ref.eq),6.73188,R,ugm-3,18.88456,R,ugm-3,29.20663,R,ugm-3
03-01-2022,18:00,19.324,R,ugm-3 (Ref.eq),17.45432,R,ugm-3,45.80474,R,ugm-3,72.56765,R,ugm-3
03-01-2022,19:00,19.324,R,ugm-3 (Ref.eq),10.82653,R,ugm-3,35.63347,R,ugm-3,52.23392,R,ugm-3
03-01-2022,20:00,16.425,R,ugm-3 (Ref.eq),9.64672,R,ugm-3,36.59745,R,ugm-3,51.38888,R,ugm-3
03-01-2022,21:00,23.189,R,ugm-3 (Ref.eq),9.23031,R,ugm-3,37.65845,R,ugm-3,51.81140,R,ugm-3
03-01-2022,22:00,12.561,R,ugm-3 (Ref.eq),6.07258,R,ugm-3,30.72253,R,ugm-3,40.03368,R,ugm-3
03-01-2022,23:00,12.561,R,ugm-3 (Ref.eq),5.03156,R,ugm-3,28.25198,R,ugm-3,35.96694,R,ugm-3
03-01-2022,24:00,17.392,R,ugm-3 (Ref.eq),5.82967,R,ugm-3,25.70786,R,ugm-3,34.64656,R,ugm-3
04-01-2022,01:00,13.527,R,ugm-3 (Ref.eq),11.43124,R,ugm-3,33.76732,R,ugm-3,51.29498,R,ugm-3
04-01-2022,02:00,7.730,R,ugm-3 (Ref.eq),0.87933,R,ugm-3,2.38611,R,ugm-3,3.73439,R,ugm-3
04-01-2022,03:00,4.831,R,ugm-3 (Ref.eq),0.38181,R,ugm-3,2.05682,R,ugm-3,2.64226,R,ugm-3
04-01-2022,04:00,2.899,R,ugm-3 (Ref.eq),0.72892,R,ugm-3,1.73598,R,ugm-3,2.85364,R,ugm-3
04-01-2022,05:00,0.966,R,ugm-3 (Ref.eq),2.39501,R,ugm-3,3.03904,R,ugm-3,6.71133,R,ugm-3
04-01-2022,06:00,3.865,R,ugm-3 (Ref.eq),8.46930,R,ugm-3,24.05834,R,ugm-3,37.04442,R,ugm-3
04-01-2022,07:00,3.865,R,ugm-3 (Ref.eq),7.35857,R,ugm-3,20.42407,R,ugm-3,31.70706,R,ugm-3
04-01-2022,08:00,10.628,R,ugm-3 (Ref.eq),16.45266,R,ugm-3,31.47574,R,ugm-3,56.70280,R,ugm-3
04-01-2022,09:00,12.561,R,ugm-3 (Ref.eq),28.21943,R,ugm-3,48.62844,R,ugm-3,91.89763,R,ugm-3
04-01-2022,10:00,16.425,R,ugm-3 (Ref.eq),19.71542,R,ugm-3,35.50942,R,ugm-3,65.73931,R,ugm-3
04-01-2022,11:00,10.628,R,ugm-3 (Ref.eq),14.02294,R,ugm-3,24.84361,R,ugm-3,46.34516,R,ugm-3
04-01-2022,12:00,11.594,R,ugm-3 (Ref.eq),8.50401,R,ugm-3,12.74911,R,ugm-3,25.78841,R,ugm-3
04-01-2022,13:00,15.459,R,ugm-3 (Ref.eq),6.80321,R,ugm-3,9.86108,R,ugm-3,20.29252,R,ugm-3
04-01-2022,14:00,20.290,R,ugm-3 (Ref.eq),7.11560,R,ugm-3,11.33735,R,ugm-3,22.24779,R,ugm-3
04-01-2022,15:00,13.527,R,ugm-3 (Ref.eq),7.35857,R,ugm-3,12.49731,R,ugm-3,23.78030,R,ugm-3
04-01-2022,16:00,21.256,R,ugm-3 (Ref.eq),6.87263,R,ugm-3,15.46191,R,ugm-3,25.99979,R,ugm-3
04-01-2022,17:00,15.459,R,ugm-3 (Ref.eq),7.49741,R,ugm-3,15.87789,R,ugm-3,27.37376,R,ugm-3
04-01-2022,18:00,17.392,R,ugm-3 (Ref.eq),5.51893,R,ugm-3,15.68797,R,ugm-3,24.15021,R,ugm-3
04-01-2022,19:00,15.459,R,ugm-3 (Ref.eq),5.10241,R,ugm-3,12.83885,R,ugm-3,20.66244,R,ugm-3
04-01-2022,20:00,13.527,R,ugm-3 (Ref.eq),4.30407,R,ugm-3,11.57923,R,ugm-3,18.17872,R,ugm-3
04-01-2022,21:00,20.290,R,ugm-3 (Ref.eq),3.60987,R,ugm-3,10.74124,R,ugm-3,16.27629,R,ugm-3
04-01-2022,22:00,8.696,R,ugm-3 (Ref.eq),3.29747,R,ugm-3,10.05764,R,ugm-3,15.11370,R,ugm-3
04-01-2022,23:00,17.392,R,ugm-3 (Ref.eq),2.29088,R,ugm-3,6.68648,R,ugm-3,10.19910,R,ugm-3
04-01-2022,24:00,14.493,R,ugm-3 (Ref.eq),2.01320,R,ugm-3,5.47405,R,ugm-3,8.56091,R,ugm-3
05-01-2022,01:00,19.324,R,ugm-3 (Ref.eq),1.62027,R,ugm-3,3.15566,R,ugm-3,5.64004,R,ugm-3
05-01-2022,02:00,17.392,R,ugm-3 (Ref.eq),1.20363,R,ugm-3,1.11548,R,ugm-3,2.96102,R,ugm-3
05-01-2022,03:00,16.425,R,ugm-3 (Ref.eq),0.90272,R,ugm-3,0.62511,R,ugm-3,2.00926,R,ugm-3
05-01-2022,04:00,16.425,R,ugm-3 (Ref.eq),0.86800,R,ugm-3,0.99560,R,ugm-3,2.32651,R,ugm-3
05-01-2022,05:00,8.696,R,ugm-3 (Ref.eq),0.83328,R,ugm-3,1.47184,R,ugm-3,2.74952,R,ugm-3
05-01-2022,06:00,13.527,R,ugm-3 (Ref.eq),2.49985,R,ugm-3,3.14650,R,ugm-3,6.97954,R,ugm-3
05-01-2022,07:00,12.561,R,ugm-3 (Ref.eq),6.07601,R,ugm-3,11.99233,R,ugm-3,21.30876,R,ugm-3
05-01-2022,08:00,11.594,R,ugm-3 (Ref.eq),8.78418,R,ugm-3,19.63107,R,ugm-3,33.09995,R,ugm-3
05-01-2022,09:00,10.628,R,ugm-3 (Ref.eq),18.33220,R,ugm-3,36.18741,R,ugm-3,64.29639,R,ugm-3
05-01-2022,10:00,12.561,R,ugm-3 (Ref.eq),25.03317,R,ugm-3,40.50632,R,ugm-3,78.88998,R,ugm-3
05-01-2022,11:00,10.628,R,ugm-3 (Ref.eq),8.92306,R,ugm-3,17.46173,R,ugm-3,31.14357,R,ugm-3
05-01-2022,12:00,14.493,R,ugm-3 (Ref.eq),8.15922,R,ugm-3,12.18215,R,ugm-3,24.69278,R,ugm-3
05-01-2022,13:00,14.493,R,ugm-3 (Ref.eq),9.37442,R,ugm-3,16.87541,R,ugm-3,31.24932,R,ugm-3
05-01-2022,14:00,17.392,R,ugm-3 (Ref.eq),8.64530,R,ugm-3,13.28747,R,ugm-3,26.54341,R,ugm-3
05-01-2022,15:00,18.358,R,ugm-3 (Ref.eq),10.06882,R,ugm-3,12.95540,R,ugm-3,28.39405,R,ugm-3
05-01-2022,16:00,21.256,R,ugm-3 (Ref.eq),14.68659,R,ugm-3,26.65492,R,ugm-3,49.17405,R,ugm-3
05-01-2022,17:00,22.223,R,ugm-3 (Ref.eq),34.58119,R,ugm-3,57.80292,R,ugm-3,110.82668,R,ugm-3
05-01-2022,18:00,28.020,R,ugm-3 (Ref.eq),26.97750,R,ugm-3,56.71880,R,ugm-3,98.08372,R,ugm-3
05-01-2022,19:00,29.952,R,ugm-3 (Ref.eq),42.15017,R,ugm-3,67.82332,R,ugm-3,132.45268,R,ugm-3
05-01-2022,20:00,25.121,R,ugm-3 (Ref.eq),46.83738,R,ugm-3,66.92853,R,ugm-3,138.74485,R,ugm-3
05-01-2022,21:00,30.918,R,ugm-3 (Ref.eq),66.48894,R,ugm-3,77.56343,R,ugm-3,179.51172,R,ugm-3
05-01-2022,22:00,29.952,R,ugm-3 (Ref.eq),48.99003,R,ugm-3,64.42099,R,ugm-3,139.53798,R,ugm-3
05-01-2022,23:00,29.952,R,ugm-3 (Ref.eq),68.01663,R,ugm-3,62.47806,R,ugm-3,166.76877,R,ugm-3
05-01-2022,24:00,34.783,R,ugm-3 (Ref.eq),110.75704,R,ugm-3,64.04247,R,ugm-3,233.86755,R,ugm-3
06-01-2022,01:00,29.952,R,ugm-3 (Ref.eq),106.64394,R,ugm-3,61.57702,R,ugm-3,225.09545,R,ugm-3
06-01-2022,02:00,26.087,R,ugm-3 (Ref.eq),67.41073,R,ugm-3,51.43994,R,ugm-3,154.80162,R,ugm-3
06-01-2022,03:00,24.155,R,ugm-3 (Ref.eq),48.23983,R,ugm-3,49.09159,R,ugm-3,123.05829,R,ugm-3
06-01-2022,04:00,19.324,R,ugm-3 (Ref.eq),28.16595,R,ugm-3,44.47730,R,ugm-3,87.66449,R,ugm-3
06-01-2022,05:00,25.121,R,ugm-3 (Ref.eq),21.18524,R,ugm-3,43.64750,R,ugm-3,76.13108,R,ugm-3
06-01-2022,06:00,21.256,R,ugm-3 (Ref.eq),32.22935,R,ugm-3,46.07686,R,ugm-3,95.49450,R,ugm-3
06-01-2022,07:00,16.425,R,ugm-3 (Ref.eq),36.36220,R,ugm-3,50.63844,R,ugm-3,106.39305,R,ugm-3
06-01-2022,08:00,14.493,R,ugm-3 (Ref.eq),8.02261,R,ugm-3,49.80995,R,ugm-3,62.11111,R,ugm-3
06-01-2022,09:00,13.527,R,ugm-3 (Ref.eq),3.88975,R,ugm-3,48.63432,R,ugm-3,54.59852,R,ugm-3
06-01-2022,10:00,16.425,R,ugm-3 (Ref.eq),3.68137,R,ugm-3,40.48895,R,ugm-3,46.13363,R,ugm-3
06-01-2022,11:00,16.425,R,ugm-3 (Ref.eq),6.18192,R,ugm-3,29.45966,R,ugm-3,38.93848,R,ugm-3
06-01-2022,12:00,9.662,R,ugm-3 (Ref.eq),5.00111,R,ugm-3,22.32919,R,ugm-3,29.99744,R,ugm-3
06-01-2022,13:00,10.628,R,ugm-3 (Ref.eq),3.05623,R,ugm-3,23.98865,R,ugm-3,28.67481,R,ugm-3
06-01-2022,14:00,11.594,R,ugm-3 (Ref.eq),4.72327,R,ugm-3,23.33716,R,ugm-3,30.57940,R,ugm-3
06-01-2022,15:00,9.662,R,ugm-3 (Ref.eq),6.98071,R,ugm-3,21.67459,R,ugm-3,32.37819,R,ugm-3
06-01-2022,16:00,12.561,R,ugm-3 (Ref.eq),5.93881,R,ugm-3,22.21403,R,ugm-3,31.32008,R,ugm-3
06-01-2022,17:00,8.696,R,ugm-3 (Ref.eq),8.23099,R,ugm-3,32.71938,R,ugm-3,45.34005,R,ugm-3
06-01-2022,18:00,11.594,R,ugm-3 (Ref.eq),11.73871,R,ugm-3,34.95935,R,ugm-3,52.95845,R,ugm-3
06-01-2022,19:00,8.696,R,ugm-3 (Ref.eq),14.69075,R,ugm-3,32.28465,R,ugm-3,54.81014,R,ugm-3
06-01-2022,20:00,9.662,R,ugm-3 (Ref.eq),17.19130,R,ugm-3,42.31177,R,ugm-3,68.67140,R,ugm-3
06-01-2022,21:00,9.662,R,ugm-3 (Ref.eq),12.88479,R,ugm-3,44.57673,R,ugm-3,64.33314,R,ugm-3
06-01-2022,22:00,11.594,R,ugm-3 (Ref.eq),5.31368,R,ugm-3,22.80222,R,ugm-3,30.94974,R,ugm-3
06-01-2022,23:00,9.662,R,ugm-3 (Ref.eq),5.20948,R,ugm-3,23.33232,R,ugm-3,31.32008,R,ugm-3
06-01-2022,24:00,11.594,R,ugm-3 (Ref.eq),3.47299,R,ugm-3,13.61501,R,ugm-3,18.94018,R,ugm-3
07-01-2022,01:00,6.763,R,ugm-3 (Ref.eq),2.45494,R,ugm-3,5.62309,R,ugm-3,9.38728,R,ugm-3
07-01-2022,02:00,3.865,R,ugm-3 (Ref.eq),1.48223,R,ugm-3,6.47933,R,ugm-3,8.75205,R,ugm-3
07-01-2022,03:00,6.763,R,ugm-3 (Ref.eq),1.00745,R,ugm-3,5.33691,R,ugm-3,6.88165,R,ugm-3
07-01-2022,04:00,4.831,R,ugm-3 (Ref.eq),1.94543,R,ugm-3,4.53394,R,ugm-3,7.51688,R,ugm-3
07-01-2022,05:00,2.899,R,ugm-3 (Ref.eq),2.04964,R,ugm-3,5.11524,R,ugm-3,8.25798,R,ugm-3
07-01-2022,06:00,6.763,R,ugm-3 (Ref.eq),4.68986,R,ugm-3,14.30090,R,ugm-3,21.49192,R,ugm-3
07-01-2022,07:00,5.797,R,ugm-3 (Ref.eq),5.83627,R,ugm-3,15.18988,R,ugm-3,24.13871,R,ugm-3
07-01-2022,08:00,3.865,R,ugm-3 (Ref.eq),18.65523,R,ugm-3,38.62413,R,ugm-3,67.22842,R,ugm-3
07-01-2022,09:00,8.696,R,ugm-3 (Ref.eq),10.66510,R,ugm-3,24.35468,R,ugm-3,40.70760,R,ugm-3
07-01-2022,10:00,7.730,R,ugm-3 (Ref.eq),9.13655,R,ugm-3,22.19889,R,ugm-3,36.20806,R,ugm-3
07-01-2022,11:00,13.527,R,ugm-3 (Ref.eq),27.27068,R,ugm-3,57.49303,R,ugm-3,99.30749,R,ugm-3
07-01-2022,12:00,13.527,R,ugm-3 (Ref.eq),7.36482,R,ugm-3,17.55742,R,ugm-3,28.84999,R,ugm-3
07-01-2022,13:00,12.561,R,ugm-3 (Ref.eq),9.31025,R,ugm-3,20.82090,R,ugm-3,35.09641,R,ugm-3
07-01-2022,14:00,13.527,R,ugm-3 (Ref.eq),8.26805,R,ugm-3,16.17248,R,ugm-3,28.84999,R,ugm-3
07-01-2022,15:00,12.561,R,ugm-3 (Ref.eq),10.59562,R,ugm-3,28.21966,R,ugm-3,44.46604,R,ugm-3
07-01-2022,16:00,12.561,R,ugm-3 (Ref.eq),20.39222,R,ugm-3,48.34776,R,ugm-3,79.61539,R,ugm-3
07-01-2022,17:00,18.358,R,ugm-3 (Ref.eq),25.25578,R,ugm-3,62.85874,R,ugm-3,101.58373,R,ugm-3
07-01-2022,18:00,16.425,R,ugm-3 (Ref.eq),21.05227,R,ugm-3,47.07101,R,ugm-3,79.35071,R,ugm-3
07-01-2022,19:00,24.155,R,ugm-3 (Ref.eq),54.81928,R,ugm-3,82.48085,R,ugm-3,166.53591,R,ugm-3
07-01-2022,20:00,12.561,R,ugm-3 (Ref.eq),19.48898,R,ugm-3,51.05609,R,ugm-3,80.93878,R,ugm-3
07-01-2022,21:00,28.020,R,ugm-3 (Ref.eq),34.32285,R,ugm-3,73.99472,R,ugm-3,126.62235,R,ugm-3
07-01-2022,22:00,21.256,R,ugm-3 (Ref.eq),19.28055,R,ugm-3,71.59715,R,ugm-3,101.16024,R,ugm-3
07-01-2022,23:00,23.189,R,ugm-3 (Ref.eq),8.92811,R,ugm-3,62.11444,R,ugm-3,75.80401,R,ugm-3
07-01-2022,24:00,16.425,R,ugm-3 (Ref.eq),6.73951,R,ugm-3,52.02456,R,ugm-3,62.35833,R,ugm-3
08-01-2022,01:00,16.425,R,ugm-3 (Ref.eq),7.45957,R,ugm-3,49.08462,R,ugm-3,60.52246,R,ugm-3
08-01-2022,02:00,18.358,R,ugm-3 (Ref.eq),1.25098,R,ugm-3,20.82191,R,ugm-3,22.74006,R,ugm-3
08-01-2022,03:00,8.696,R,ugm-3 (Ref.eq),0.83399,R,ugm-3,17.78899,R,ugm-3,19.06775,R,ugm-3
08-01-2022,04:00,6.763,R,ugm-3 (Ref.eq),0.69499,R,ugm-3,9.52756,R,ugm-3,10.59320,R,ugm-3
08-01-2022,05:00,7.730,R,ugm-3 (Ref.eq),0.69499,R,ugm-3,7.14409,R,ugm-3,8.20973,R,ugm-3
08-01-2022,06:00,9.662,R,ugm-3 (Ref.eq),0.76449,R,ugm-3,6.56083,R,ugm-3,7.73303,R,ugm-3
08-01-2022,07:00,8.696,R,ugm-3 (Ref.eq),0.72974,R,ugm-3,6.66708,R,ugm-3,7.78600,R,ugm-3
08-01-2022,08:00,4.831,R,ugm-3 (Ref.eq),1.63323,R,ugm-3,8.83047,R,ugm-3,11.33472,R,ugm-3
08-01-2022,09:00,3.865,R,ugm-3 (Ref.eq),3.57920,R,ugm-3,13.73862,R,ugm-3,19.22665,R,ugm-3
08-01-2022,10:00,2.899,R,ugm-3 (Ref.eq),5.00393,R,ugm-3,20.45234,R,ugm-3,28.12494,R,ugm-3
08-01-2022,11:00,2.899,R,ugm-3 (Ref.eq),6.35917,R,ugm-3,22.77053,R,ugm-3,32.52111,R,ugm-3
08-01-2022,12:00,13.527,R,ugm-3 (Ref.eq),8.86114,R,ugm-3,28.57404,R,ugm-3,42.16092,R,ugm-3
08-01-2022,13:00,23.189,R,ugm-3 (Ref.eq),16.95778,R,ugm-3,47.03853,R,ugm-3,73.04009,R,ugm-3
08-01-2022,14:00,21.256,R,ugm-3 (Ref.eq),11.50210,R,ugm-3,28.65596,R,ugm-3,46.29227,R,ugm-3
08-01-2022,15:00,23.189,R,ugm-3 (Ref.eq),6.53292,R,ugm-3,18.74353,R,ugm-3,28.76053,R,ugm-3
08-01-2022,16:00,28.020,R,ugm-3 (Ref.eq),9.79937,R,ugm-3,26.02314,R,ugm-3,41.04864,R,ugm-3
08-01-2022,17:00,19.324,R,ugm-3 (Ref.eq),6.32442,R,ugm-3,21.71152,R,ugm-3,31.40883,R,ugm-3
08-01-2022,18:00,17.392,R,ugm-3 (Ref.eq),9.31288,R,ugm-3,23.43223,R,ugm-3,37.71178,R,ugm-3
08-01-2022,19:00,13.527,R,ugm-3 (Ref.eq),6.60241,R,ugm-3,18.79587,R,ugm-3,28.91943,R,ugm-3
08-01-2022,20:00,14.493,R,ugm-3 (Ref.eq),5.52518,R,ugm-3,19.75905,R,ugm-3,28.23087,R,ugm-3
08-01-2022,21:00,13.527,R,ugm-3 (Ref.eq),3.85720,R,ugm-3,12.41194,R,ugm-3,18.32623,R,ugm-3
08-01-2022,22:00,10.628,R,ugm-3 (Ref.eq),1.98072,R,ugm-3,6.86757,R,ugm-3,9.90464,R,ugm-3
08-01-2022,23:00,12.561,R,ugm-3 (Ref.eq),2.22397,R,ugm-3,6.33570,R,ugm-3,9.74574,R,ugm-3
08-01-2022,24:00,14.493,R,ugm-3 (Ref.eq),1.49423,R,ugm-3,4.54149,R,ugm-3,6.83261,R,ugm-3
09-01-2022,01:00,17.392,R,ugm-3 (Ref.eq),1.48307,R,ugm-3,5.00414,R,ugm-3,7.27815,R,ugm-3
09-01-2022,02:00,17.392,R,ugm-3 (Ref.eq),0.92692,R,ugm-3,1.89984,R,ugm-3,3.32110,R,ugm-3
09-01-2022,03:00,20.290,R,ugm-3 (Ref.eq),0.83423,R,ugm-3,3.22555,R,ugm-3,4.50468,R,ugm-3
09-01-2022,04:00,18.358,R,ugm-3 (Ref.eq),0.79947,R,ugm-3,2.37791,R,ugm-3,3.60374,R,ugm-3
09-01-2022,05:00,16.425,R,ugm-3 (Ref.eq),0.97326,R,ugm-3,3.22435,R,ugm-3,4.71666,R,ugm-3
09-01-2022,06:00,15.459,R,ugm-3 (Ref.eq),1.07754,R,ugm-3,4.49535,R,ugm-3,6.14756,R,ugm-3
09-01-2022,07:00,10.628,R,ugm-3 (Ref.eq),1.59893,R,ugm-3,5.92174,R,ugm-3,8.37340,R,ugm-3
09-01-2022,08:00,9.662,R,ugm-3 (Ref.eq),2.08556,R,ugm-3,10.10423,R,ugm-3,13.30205,R,ugm-3
09-01-2022,09:00,11.594,R,ugm-3 (Ref.eq),6.60428,R,ugm-3,29.51474,R,ugm-3,39.64116,R,ugm-3
09-01-2022,10:00,16.425,R,ugm-3 (Ref.eq),10.21926,R,ugm-3,33.35218,R,ugm-3,49.02149,R,ugm-3
09-01-2022,11:00,15.459,R,ugm-3 (Ref.eq),15.98931,R,ugm-3,41.41068,R,ugm-3,65.92728,R,ugm-3
09-01-2022,12:00,16.425,R,ugm-3 (Ref.eq),14.98129,R,ugm-3,42.69131,R,ugm-3,65.66230,R,ugm-3
09-01-2022,13:00,21.256,R,ugm-3 (Ref.eq),13.55616,R,ugm-3,43.23360,R,ugm-3,64.01941,R,ugm-3
09-01-2022,14:00,21.256,R,ugm-3 (Ref.eq),5.10963,R,ugm-3,14.58274,R,ugm-3,22.41739,R,ugm-3
09-01-2022,15:00,19.324,R,ugm-3 (Ref.eq),7.16043,R,ugm-3,15.62492,R,ugm-3,26.60409,R,ugm-3
09-01-2022,16:00,23.189,R,ugm-3 (Ref.eq),5.45722,R,ugm-3,12.40689,R,ugm-3,20.77451,R,ugm-3
09-01-2022,17:00,21.256,R,ugm-3 (Ref.eq),5.59626,R,ugm-3,15.85044,R,ugm-3,24.43125,R,ugm-3
09-01-2022,18:00,18.358,R,ugm-3 (Ref.eq),9.52407,R,ugm-3,36.16700,R,ugm-3,50.77036,R,ugm-3
09-01-2022,19:00,17.392,R,ugm-3 (Ref.eq),10.01070,R,ugm-3,31.76410,R,ugm-3,47.11363,R,ugm-3
09-01-2022,20:00,21.256,R,ugm-3 (Ref.eq),13.34760,R,ugm-3,51.29083,R,ugm-3,71.75686,R,ugm-3
09-01-2022,21:00,20.290,R,ugm-3 (Ref.eq),8.20321,R,ugm-3,46.51269,R,ugm-3,59.09077,R,ugm-3
09-01-2022,22:00,23.189,R,ugm-3 (Ref.eq),3.99733,R,ugm-3,50.25881,R,ugm-3,56.38796,R,ugm-3
09-01-2022,23:00,21.256,R,ugm-3 (Ref.eq),5.73530,R,ugm-3,44.09621,R,ugm-3,52.89021,R,ugm-3
09-01-2022,24:00,18.358,R,ugm-3 (Ref.eq),3.99733,R,ugm-3,35.36688,R,ugm-3,41.49603,R,ugm-3
10-01-2022,01:00,16.425,R,ugm-3 (Ref.eq),0.46346,R,ugm-3,26.36820,R,ugm-3,27.07883,R,ugm-3
10-01-2022,02:00,14.493,R,ugm-3 (Ref.eq),1.39038,R,ugm-3,24.32831,R,ugm-3,26.46019,R,ugm-3
10-01-2022,03:00,16.425,R,ugm-3 (Ref.eq),0.69519,R,ugm-3,19.34923,R,ugm-3,20.41517,R,ugm-3
10-01-2022,04:00,18.358,R,ugm-3 (Ref.eq),1.18182,R,ugm-3,21.62558,R,ugm-3,23.43768,R,ugm-3
10-01-2022,05:00,15.459,R,ugm-3 (Ref.eq),10.28877,R,ugm-3,31.57670,R,ugm-3,47.35260,R,ugm-3
10-01-2022,06:00,19.324,R,ugm-3 (Ref.eq),45.74333,R,ugm-3,55.21567,R,ugm-3,125.35446,R,ugm-3
10-01-2022,07:00,19.324,R,ugm-3 (Ref.eq),53.66847,R,ugm-3,55.41912,R,ugm-3,137.70962,R,ugm-3
10-01-2022,08:00,17.392,R,ugm-3 (Ref.eq),24.78343,R,ugm-3,55.90906,R,ugm-3,93.90980,R,ugm-3
10-01-2022,09:00,21.256,R,ugm-3 (Ref.eq),21.37701,R,ugm-3,60.38980,R,ugm-3,93.16742,R,ugm-3
10-01-2022,10:00,26.087,R,ugm-3 (Ref.eq),19.50001,R,ugm-3,62.41941,R,ugm-3,92.31900,R,ugm-3
10-01-2022,11:00,18.358,R,ugm-3 (Ref.eq),6.43048,R,ugm-3,44.33307,R,ugm-3,54.19300,R,ugm-3
10-01-2022,12:00,16.425,R,ugm-3 (Ref.eq),4.93583,R,ugm-3,33.31520,R,ugm-3,40.88337,R,ugm-3
10-01-2022,13:00,17.392,R,ugm-3 (Ref.eq),7.89038,R,ugm-3,38.70090,R,ugm-3,50.79931,R,ugm-3
10-01-2022,14:00,12.561,R,ugm-3 (Ref.eq),7.22995,R,ugm-3,37.59249,R,ugm-3,48.67826,R,ugm-3
10-01-2022,15:00,19.324,R,ugm-3 (Ref.eq),8.51605,R,ugm-3,39.75656,R,ugm-3,52.81432,R,ugm-3
10-01-2022,16:00,16.425,R,ugm-3 (Ref.eq),11.40107,R,ugm-3,51.45295,R,ugm-3,68.93435,R,ugm-3
10-01-2022,17:00,13.527,R,ugm-3 (Ref.eq),4.10161,R,ugm-3,40.74540,R,ugm-3,47.03444,R,ugm-3
10-01-2022,18:00,14.493,R,ugm-3 (Ref.eq),5.31818,R,ugm-3,37.97855,R,ugm-3,46.13299,R,ugm-3
10-01-2022,19:00,15.459,R,ugm-3 (Ref.eq),4.17113,R,ugm-3,33.05602,R,ugm-3,39.45166,R,ugm-3
10-01-2022,20:00,10.628,R,ugm-3 (Ref.eq),9.35027,R,ugm-3,34.12927,R,ugm-3,48.46615,R,ugm-3
10-01-2022,21:00,9.662,R,ugm-3 (Ref.eq),1.59893,R,ugm-3,25.75840,R,ugm-3,28.21006,R,ugm-3
10-01-2022,22:00,11.594,R,ugm-3 (Ref.eq),2.29412,R,ugm-3,24.16219,R,ugm-3,27.67979,R,ugm-3
10-01-2022,23:00,8.696,R,ugm-3 (Ref.eq),2.53743,R,ugm-3,19.22884,R,ugm-3,23.11952,R,ugm-3
10-01-2022,24:00,10.628,R,ugm-3 (Ref.eq),6.46524,R,ugm-3,25.77355,R,ugm-3,35.68678,R,ugm-3
11-01-2022,01:00,10.628,R,ugm-3 (Ref.eq),4.35651,R,ugm-3,21.68773,R,ugm-3,28.36762,R,ugm-3
11-01-2022,02:00,10.628,R,ugm-3 (Ref.eq),1.04278,R,ugm-3,11.71831,R,ugm-3,13.31722,R,ugm-3
11-01-2022,03:00,11.594,R,ugm-3 (Ref.eq),0.48663,R,ugm-3,15.27695,R,ugm-3,16.02311,R,ugm-3
11-01-2022,04:00,9.662,R,ugm-3 (Ref.eq),1.00802,R,ugm-3,9.75545,R,ugm-3,11.30107,R,ugm-3
11-01-2022,05:00,12.561,R,ugm-3 (Ref.eq),0.86898,R,ugm-3,8.05860,R,ugm-3,9.39103,R,ugm-3
11-01-2022,06:00,16.425,R,ugm-3 (Ref.eq),7.12567,R,ugm-3,25.25876,R,ugm-3,36.18463,R,ugm-3
11-01-2022,07:00,14.493,R,ugm-3 (Ref.eq),15.46792,R,ugm-3,37.51022,R,ugm-3,61.22737,R,ugm-3
11-01-2022,08:00,25.121,R,ugm-3 (Ref.eq),16.75402,R,ugm-3,44.39869,R,ugm-3,70.08783,R,ugm-3
11-01-2022,09:00,25.121,R,ugm-3 (Ref.eq),44.70055,R,ugm-3,62.77530,R,ugm-3,131.31519,R,ugm-3
11-01-2022,10:00,28.020,R,ugm-3 (Ref.eq),51.54815,R,ugm-3,64.53189,R,ugm-3,143.57128,R,ugm-3
11-01-2022,11:00,30.918,R,ugm-3 (Ref.eq),28.29413,R,ugm-3,55.08940,R,ugm-3,98.47313,R,ugm-3
11-01-2022,12:00,26.087,R,ugm-3 (Ref.eq),21.16846,R,ugm-3,45.58847,R,ugm-3,78.04632,R,ugm-3
11-01-2022,13:00,24.155,R,ugm-3 (Ref.eq),26.97327,R,ugm-3,49.52759,R,ugm-3,90.88603,R,ugm-3
11-01-2022,14:00,28.020,R,ugm-3 (Ref.eq),16.89306,R,ugm-3,40.10014,R,ugm-3,66.00246,R,ugm-3
11-01-2022,15:00,34.783,R,ugm-3 (Ref.eq),29.51071,R,ugm-3,58.37051,R,ugm-3,103.61962,R,ugm-3
11-01-2022,16:00,37.682,R,ugm-3 (Ref.eq),27.39039,R,ugm-3,58.38517,R,ugm-3,100.38317,R,ugm-3
11-01-2022,17:00,37.682,R,ugm-3 (Ref.eq),55.30216,R,ugm-3,76.17839,R,ugm-3,160.97386,R,ugm-3
11-01-2022,18:00,32.851,R,ugm-3 (Ref.eq),75.74067,R,ugm-3,75.66569,R,ugm-3,191.79976,R,ugm-3
11-01-2022,19:00,37.682,R,ugm-3 (Ref.eq),161.70059,R,ugm-3,89.07834,R,ugm-3,337.01580,R,ugm-3
11-01-2022,20:00,43.479,R,ugm-3 (Ref.eq),157.28615,R,ugm-3,82.58290,R,ugm-3,323.75164,R,ugm-3